Location: Goheenville
(40.9070°N, 79.3720°W)
Time: 12:29:54
(UTC-05:00)

Meteor 2-10 Rocket - Visible Passes

Search period start: 22 February 2017 00:00
Search period end: 04 March 2017 00:00
Orbit: 734 x 885 km, 81.2° (Epoch: 22 February)

Date Brightness Start Highest point End Pass type
(mag) Time Alt. Az. Time Alt. Az. Time Alt. Az.
22 Feb 3.6 05:09:58 10° S 05:14:56 72° E 05:19:58 10° NNE visible
23 Feb 4.3 04:45:54 10° SSE 04:50:42 49° E 04:55:34 10° NNE visible
23 Feb 4.8 06:29:43 10° WSW 06:33:04 18° WNW 06:36:28 10° NNW visible
24 Feb 5.0 04:22:03 10° SSE 04:26:31 34° E 04:31:02 10° NNE visible
24 Feb 4.4 06:04:31 10° SW 06:08:36 25° WNW 06:12:45 10° NNW visible
25 Feb 5.5 03:59:08 13° SE 04:02:22 24° E 04:06:21 10° NE visible
25 Feb 4.0 05:40:23 14° SW 05:44:11 35° WNW 05:48:49 10° N visible
26 Feb 6.0 03:36:25 14° ESE 03:38:16 17° E 03:41:23 10° NE visible
26 Feb 3.5 05:17:38 30° SW 05:19:48 50° WNW 05:24:45 10° N visible
27 Feb 6.3 03:13:20 11° E 03:14:12 11° E 03:15:42 10° ENE visible
27 Feb 3.3 04:54:31 56° SW 04:55:28 73° W 05:00:34 10° N visible
28 Feb 3.4 04:31:13 79° E 04:31:13 79° E 04:36:18 10° NNE visible
28 Feb 5.2 06:12:23 10° W 06:13:57 12° WNW 06:15:42 10° NW visible
01 Mar 4.2 04:07:44 49° ENE 04:07:44 49° ENE 04:11:55 10° NNE visible
01 Mar 4.9 05:48:55 16° WNW 05:49:24 17° WNW 05:52:39 10° NNW visible
02 Mar 5.1 03:44:09 31° ENE 03:44:09 31° ENE 03:47:26 10° NNE visible
02 Mar 4.6 05:25:20 23° WNW 05:25:20 23° WNW 05:28:59 10° NNW visible
03 Mar 5.7 03:20:30 21° NE 03:20:30 21° NE 03:22:48 10° NE visible
03 Mar 4.4 05:01:39 29° NW 05:01:39 29° NW 05:05:06 10° N visible
